Simultaneous Nadir Overpasses (SNOs) Predictions

Prediction of SNOs between GOES-16 and METOP-C Satellite Orbit:

Table of predicted SNOs for the next 14.0 days since TLE Epoch: 3/30/2024
Index Date Time (GOES-16) GOES-16 Lat,Lon METOP-C Lat,Lon Distance(km) Time Diff (sec)
1 03/31/2024 14:34:09 0.04, -75.23 0.34, -76.46 140.90 80
2 04/01/2024 14:13:30 0.04, -75.23 -0.83, -71.47 428.79 80
3 04/03/2024 02:35:07 -0.03, -75.22 -0.24, -76.05 95.88 80
4 04/04/2024 02:11:47 -0.03, -75.22 0.93, -71.07 474.17 80
5 04/05/2024 14:30:38 0.03, -75.26 0.12, -75.62 41.96 80
6 04/08/2024 02:28:56 -0.03, -75.26 0.00, -75.22 6.20 80
7 04/10/2024 14:29:45 0.02, -75.32 -0.09, -74.78 61.94 80
8 04/12/2024 02:48:43 -0.02, -75.32 -0.94, -79.36 460.27 80
9 04/13/2024 02:25:22 -0.02, -75.34 0.19, -74.36 111.02 80
